Regional Weather Roundup
Issued by NWS

Home | Current Version | Previous Version | Graphics & Text | Print | Product List | Glossary On
Versions: 1 2 3 4 5 6 7 8 9 10 11 12 13 14 15 16 17 18 19 20 21 22 23 24 25 26 27 28 29 30 31 32 33 34 35 36 37 38 39 40 41 42 43 44 45 46 47 48 49 50
000
ASUS43 KFSD 270602
RWRSD

WEATHER ROUNDUP FOR SOUTH DAKOTA
NATIONAL WEATHER SERVICE SIOUX FALLS SD
100 AM CDT MON MAR 27 2017

NOTE: "FAIR" INDICATES FEW OR NO CLOUDS BELOW 12,000 FEET WITH NO
SIGNIFICANT WEATHER AND/OR OBSTRUCTIONS TO VISIBILITY.


SDZ001>005-009-010-012>017-270700-
NORTHWEST AND NORTH CENTRAL SOUTH DAKOTA

CITY           SKY/WX    TMP DP  RH WIND       PRES   REMARKS
BUFFALO          N/A     40  36  86 S5        29.84F
FAITH            N/A     39  39 100 MISG      29.92F
MOBRIDGE       CLOUDY    43  36  76 E5        29.91S
$$

SDZ012>016-024>037-041>051-057-063-072>074-270700-
SOUTHWEST AND SOUTH CENTRAL SOUTH DAKOTA

CITY           SKY/WX    TMP DP  RH WIND       PRES   REMARKS
RAPID CTY ARPT FOG       32  32 100 CALM      29.94S VSB 3/4
PIERRE         CLOUDY    41  39  93 CALM      29.95S
CUSTER         CLOUDY    30  28  92 W5        29.92S WCI  25
ELLSWORTH AFB  CLEAR     34  34 100 S3        29.93  FOG
PHILIP         CLOUDY    40  37  89 SE3       29.94F
PINE RIDGE     CLOUDY    42  39  89 NW5       29.94F
SPEARFISH      FAIR      36  34  93 CALM      29.92F
WINNER         CLOUDY    37  33  85 S7        29.96F
$$

SDZ004>011-016>023-039-040-270700-
NORTHEAST SOUTH DAKOTA

CITY           SKY/WX    TMP DP  RH WIND       PRES   REMARKS
ABERDEEN       CLOUDY    40  35  83 W5        29.97R
WATERTOWN      CLOUDY    36  35  96 CALM      29.95R
BROOKINGS      FOG       34  34 100 CALM      29.94R VSB 3/4
SISSETON         N/A     37  36  96 W3        29.95R
$$

SDZ017-020-022-023-036>040-048>070-270700-
SOUTHEAST SOUTH DAKOTA

CITY           SKY/WX    TMP DP  RH WIND       PRES   REMARKS
SIOUX FALLS    CLOUDY    43  39  86 CALM      29.95F
HURON          CLOUDY    38  36  92 W5        29.95F
CHAMBERLAIN    FOG       31  31 100 CALM      29.96F VSB 1
MITCHELL       CLEAR     38  36  92 CALM      29.97R
YANKTON        CLOUDY    45  39  81 CALM      29.95S
$$

ABBREVIATIONS USED IN REMARKS
   TC - TEMPERATURE IN CELSIUS
  WCI - WIND CHILL INDEX
   HX - HEAT INDEX
  VSB - VISIBILITY




USA.gov is the U.S. government's official web portal to all federal, state and local government web resources and services.